Appleton, MN

6:55 AM CST on February 25, 2018 (GMT -0600)
Appleton Municipal

Weather History for KAQP - January, 2014

Change the Weather History Date:

Thursday, January 23, 2014

  Actual Average Record
Temperature  
Mean Temperature -2 °F -  
Max Temperature 15 °F 17 °F 42 °F (2015)
Min Temperature -16 °F 2 °F -23 °F (2011)
Degree Days  
Heating Degree Days 67    
Moisture  
Dew Point -12 °F    
Average Humidity 69    
Maximum Humidity 84    
Minimum Humidity 53    
Precipitation  
Precipitation 0.00 in - - ()
Sea Level Pressure  
Sea Level Pressure 30.56 in    
Wind  
Wind Speed 12 mph (West)    
Max Wind Speed 24 mph    
Max Gust Speed 29 mph    
Visibility 9 miles    
Events Snow    
Averages and records for this station are not official NWS values.
T = Trace of Precipitation, MM = Missing Value Source: NWS Daily Summary

Daily Weather History Graph

Daily Weather History Graph

Search for Another Location

Airport or City:

Trip Planner

Search our weather history database for the weather conditions in past years. The results will help you decide how hot, cold, wet, or windy it might be!

Date:

Astronomy

Jan. 23, 2014 Rise Set
Actual Time 7:53 AM CST 5:18 PM CST
Civil Twilight 7:21 AM CST 5:50 PM CST
Nautical Twilight 6:45 AM CST 6:26 PM CST
Astronomical Twilight 6:10 AM CST 7:01 PM CST
Moon 12:11 AM CST (1/23) 11:07 AM CST (1/23)
Length of Visible Light 10h 29m
Length of Day
9h 25m
Waning Gibbous, 55% of the Moon is Illuminated
Jan 23
Waning Gibbous
Jan 23
Last Quarter
Jan 30
New
Feb 6
First Quarter
Feb 14
Full

Hourly Weather History & Observations

Time (CST) Temp. Windchill Dew Point Humidity Pressure Visibility Wind Dir Wind Speed Gust Speed Precip Events Conditions
12:13 AM -7.6 °F -31.7 °F -14.8 °F 71% 30.63 in 3.0 mi NNW 19.6 mph 26.5 mph N/A   Haze
12:34 AM -7.6 °F -31.1 °F -14.8 °F 71% 30.63 in 5.0 mi NNW 18.4 mph 24.2 mph N/A   Haze
12:53 AM -7.6 °F -32.3 °F -14.8 °F 71% 30.63 in 4.0 mi NNW 20.7 mph - N/A   Haze
1:13 AM -7.6 °F -33.9 °F -14.8 °F 71% 30.63 in 1.5 mi NNW 24.2 mph 28.8 mph N/A Snow Light Snow
1:34 AM -9.4 °F -35.2 °F -16.6 °F 71% 30.63 in 4.0 mi NNW 21.9 mph - N/A   Haze
1:54 AM -9.4 °F -32.8 °F -16.6 °F 71% 30.64 in 10.0 mi NNW 17.3 mph - N/A   Mostly Cloudy
2:13 AM -11.2 °F -35.8 °F -16.6 °F 77% 30.64 in 10.0 mi NNW 18.4 mph - N/A   Scattered Clouds
2:33 AM -11.2 °F -32.9 °F -16.6 °F 77% 30.66 in 10.0 mi NNW 13.8 mph 21.9 mph N/A   Clear
2:54 AM -11.2 °F -31.1 °F -16.6 °F 77% 30.67 in 10.0 mi NNW 11.5 mph - N/A   Clear
3:13 AM -11.2 °F -29.0 °F -18.4 °F 70% 30.68 in 10.0 mi NW 9.2 mph - N/A   Mostly Cloudy
3:33 AM -14.8 °F -32.2 °F -20.2 °F 77% 30.69 in 10.0 mi NW 8.1 mph - N/A   Mostly Cloudy
3:54 AM -14.8 °F -32.2 °F -20.2 °F 77% 30.69 in 10.0 mi NW 8.1 mph - N/A   Scattered Clouds
4:13 AM -14.8 °F -32.2 °F -20.2 °F 77% 30.69 in 10.0 mi NW 8.1 mph - N/A   Clear
4:33 AM -14.8 °F -32.2 °F -20.2 °F 77% 30.70 in 10.0 mi NW 8.1 mph - N/A   Clear
4:53 AM -14.8 °F -27.2 °F -20.2 °F 77% 30.71 in 10.0 mi NW 4.6 mph - N/A   Clear
5:14 AM -16.6 °F -34.4 °F -20.2 °F 84% 30.71 in 10.0 mi NW 8.1 mph - N/A   Clear
5:34 AM -16.6 °F -34.4 °F -22.0 °F 76% 30.71 in 10.0 mi NW 8.1 mph - N/A   Clear
5:54 AM -14.8 °F -33.5 °F -20.2 °F 77% 30.72 in 10.0 mi NW 9.2 mph - N/A   Clear
6:14 AM -14.8 °F -32.2 °F -20.2 °F 77% 30.72 in 10.0 mi NW 8.1 mph - N/A   Clear
6:33 AM -14.8 °F -33.5 °F -20.2 °F 77% 30.73 in 10.0 mi NW 9.2 mph - N/A   Clear
6:53 AM -14.8 °F -30.8 °F -20.2 °F 77% 30.73 in 10.0 mi NW 6.9 mph - N/A   Clear
7:13 AM -14.8 °F -34.6 °F -20.2 °F 77% 30.73 in 10.0 mi NW 10.4 mph - N/A   Clear
7:33 AM -14.8 °F -34.6 °F -20.2 °F 77% 30.73 in 10.0 mi NW 10.4 mph - N/A   Clear
7:53 AM -16.6 °F -35.7 °F -22.0 °F 76% 30.74 in 10.0 mi NW 9.2 mph - N/A   Clear
8:14 AM -16.6 °F -32.9 °F -22.0 °F 76% 30.74 in 10.0 mi NW 6.9 mph - N/A   Clear
8:34 AM -16.6 °F -29.3 °F -20.2 °F 84% 30.74 in 10.0 mi WNW 4.6 mph - N/A   Clear
8:54 AM -14.8 °F -29.1 °F -20.2 °F 77% 30.75 in 10.0 mi West 5.8 mph - N/A   Clear
9:13 AM -14.8 °F -29.1 °F -20.2 °F 77% 30.75 in 10.0 mi West 5.8 mph - N/A   Clear
9:34 AM -11.2 °F -26.4 °F -18.4 °F 70% 30.75 in 10.0 mi West 6.9 mph - N/A   Clear
9:53 AM -11.2 °F -27.8 °F -18.4 °F 70% 30.76 in 10.0 mi West 8.1 mph - N/A   Clear
10:14 AM -9.4 °F -22.7 °F -16.6 °F 71% 30.75 in 10.0 mi West 5.8 mph - N/A   Clear
10:34 AM -7.6 °F -20.6 °F -14.8 °F 71% 30.75 in 0.2 mi WNW 5.8 mph - N/A Snow Light Snow
10:54 AM -5.8 °F -21.2 °F -14.8 °F 65% 30.74 in 10.0 mi WNW 8.1 mph - N/A   Clear
11:13 AM -5.8 °F -22.4 °F -11.2 °F 77% 30.73 in 0.2 mi WNW 9.2 mph - N/A Snow Light Snow
11:34 AM -2.2 °F -15.6 °F -11.2 °F 66% 30.73 in 10.0 mi West 6.9 mph - N/A   Clear
11:54 AM -2.2 °F -14.2 °F -11.2 °F 66% 30.72 in 10.0 mi West 5.8 mph - N/A   Clear
12:14 PM -2.2 °F -16.8 °F -11.2 °F 66% 30.72 in 10.0 mi West 8.1 mph - N/A   Clear
12:34 PM -0.4 °F -13.4 °F -11.2 °F 60% 30.70 in 10.0 mi West 6.9 mph - N/A   Clear
12:54 PM 1.4 °F -11.3 °F -9.4 °F 61% 30.69 in 10.0 mi WSW 6.9 mph - N/A   Clear
1:14 PM 1.4 °F -9.9 °F -9.4 °F 61% 30.68 in 10.0 mi WSW 5.8 mph - N/A   Clear
1:34 PM 1.4 °F -9.9 °F -9.4 °F 61% 30.66 in 10.0 mi SW 5.8 mph - N/A   Clear
1:54 PM 3.2 °F -11.3 °F -7.6 °F 61% 30.64 in 10.0 mi WSW 9.2 mph - N/A   Clear
2:14 PM 3.2 °F -11.3 °F -7.6 °F 61% 30.62 in 10.0 mi WSW 9.2 mph - N/A   Clear
2:34 PM 3.2 °F -10.3 °F -5.8 °F 66% 30.61 in 10.0 mi SW 8.1 mph - N/A   Clear
2:54 PM 3.2 °F -9.1 °F -5.8 °F 66% 30.61 in 10.0 mi WSW 6.9 mph - N/A   Clear
3:13 PM 3.2 °F -10.3 °F -5.8 °F 66% 30.59 in 10.0 mi SW 8.1 mph - N/A   Clear
3:34 PM 5.0 °F -10.0 °F -5.8 °F 61% 30.58 in 10.0 mi SW 10.4 mph - N/A   Clear
3:54 PM 5.0 °F -8.1 °F -5.8 °F 61% 30.57 in 10.0 mi SW 8.1 mph - N/A   Clear
4:14 PM 5.0 °F -8.1 °F -5.8 °F 61% 30.56 in 10.0 mi SW 8.1 mph - N/A   Clear
4:34 PM 5.0 °F -8.1 °F -5.8 °F 61% 30.54 in 10.0 mi SSW 8.1 mph - N/A   Clear
4:53 PM 5.0 °F -8.1 °F -5.8 °F 61% 30.52 in 10.0 mi SSW 8.1 mph - N/A   Clear
5:13 PM 3.2 °F -9.1 °F -5.8 °F 66% 30.51 in 10.0 mi SSW 6.9 mph - N/A   Clear
5:33 PM 3.2 °F -9.1 °F -5.8 °F 66% 30.50 in 10.0 mi SSW 6.9 mph - N/A   Clear
5:54 PM 1.4 °F -12.5 °F -5.8 °F 72% 30.48 in 10.0 mi SSW 8.1 mph - N/A   Clear
6:14 PM 1.4 °F -12.5 °F -5.8 °F 72% 30.46 in 10.0 mi South 8.1 mph - N/A   Clear
6:34 PM 1.4 °F -12.5 °F -7.6 °F 66% 30.42 in 10.0 mi South 8.1 mph - N/A   Clear
6:54 PM 1.4 °F -14.5 °F -5.8 °F 72% 30.41 in 10.0 mi South 10.4 mph - N/A   Clear
7:14 PM 1.4 °F -14.5 °F -5.8 °F 72% 30.38 in 10.0 mi South 10.4 mph - N/A   Clear
7:33 PM 1.4 °F -16.1 °F -5.8 °F 72% 30.36 in 10.0 mi South 12.7 mph 16.1 mph N/A   Clear
7:53 PM 1.4 °F -15.3 °F -5.8 °F 72% 30.34 in 10.0 mi South 11.5 mph - N/A   Clear
8:14 PM 1.4 °F -16.1 °F -5.8 °F 72% 30.31 in 10.0 mi South 12.7 mph - N/A   Clear
8:34 PM 3.2 °F -13.9 °F -4.0 °F 72% 30.29 in 10.0 mi South 12.7 mph - N/A   Clear
8:54 PM 3.2 °F -13.1 °F -4.0 °F 72% 30.25 in 10.0 mi South 11.5 mph - N/A   Clear
9:13 PM 3.2 °F -14.6 °F -4.0 °F 72% 30.22 in 10.0 mi South 13.8 mph - N/A   Clear
9:33 PM 6.8 °F -10.0 °F -2.2 °F 67% 30.19 in 10.0 mi South 13.8 mph - N/A   Clear
9:53 PM 6.8 °F -8.6 °F -2.2 °F 67% 30.17 in 10.0 mi South 11.5 mph - N/A   Clear
10:14 PM 8.6 °F -7.7 °F -2.2 °F 62% 30.13 in 10.0 mi SSW 13.8 mph 17.3 mph N/A   Clear
10:33 PM 12.2 °F -2.5 °F -2.2 °F 53% 30.12 in 10.0 mi SSW 12.7 mph - N/A   Clear
10:54 PM 12.2 °F -1.0 °F -2.2 °F 53% 30.09 in 10.0 mi SSW 10.4 mph 17.3 mph N/A   Clear
11:13 PM 12.2 °F -1.0 °F -2.2 °F 53% 30.07 in 10.0 mi SSW 10.4 mph - N/A   Clear
11:33 PM 12.2 °F -1.0 °F -0.4 °F 57% 30.04 in 10.0 mi SSW 10.4 mph - N/A   Clear
11:54 PM 15.8 °F 0.3 °F 1.4 °F 53% 30.01 in 10.0 mi SSW 16.1 mph - N/A   Mostly Cloudy